Time,TemperatureF,DewpointF,PressureIn,WindDirection,WindDirectionDegrees,WindSpeedMPH,WindSpeedGustMPH,Humidity,HourlyPrecipIn,Conditions,Clouds,dailyrainin,SolarRadiationWatts/m^2,SoftwareType,DateUTC
2013-05-07 00:02:00,32.9,31.4,30.00,WNW,297,6.0,10.0,94,0.00,,,0.00,0,WeatherCatV1.15B25,2013-05-07 07:02:00,
2013-05-07 00:07:00,32.9,31.4,30.00,NW,307,6.0,10.0,94,0.00,,,0.01,0,WeatherCatV1.15B25,2013-05-07 07:07:00,
2013-05-07 00:12:00,32.9,31.4,30.00,WNW,297,11.0,11.0,94,0.00,,,0.01,0,WeatherCatV1.15B25,2013-05-07 07:12:00,
2013-05-07 00:17:00,32.9,31.4,30.01,WNW,299,7.0,9.0,94,0.00,,,0.01,0,WeatherCatV1.15B25,2013-05-07 07:17:00,
2013-05-07 00:22:00,32.9,31.4,30.01,NW,305,5.0,10.0,94,0.00,,,0.01,0,WeatherCatV1.15B25,2013-05-07 07:22:00,
2013-05-07 00:27:00,32.9,31.4,30.01,WNW,297,6.0,10.0,94,0.00,,,0.01,0,WeatherCatV1.15B25,2013-05-07 07:27:00,
2013-05-07 00:32:00,32.8,31.3,30.01,NW,307,4.0,8.0,94,0.00,,,0.01,0,WeatherCatV1.15B25,2013-05-07 07:32:00,
2013-05-07 00:37:00,32.8,31.3,30.01,West,278,5.0,7.0,94,0.00,,,0.01,0,WeatherCatV1.15B25,2013-05-07 07:37:00,
2013-05-07 00:42:00,32.8,31.3,30.01,WNW,288,3.0,6.0,94,0.00,,,0.01,0,WeatherCatV1.15B25,2013-05-07 07:42:00,
2013-05-07 00:47:00,32.8,31.3,30.01,WNW,297,5.0,9.0,94,0.00,,,0.01,0,WeatherCatV1.15B25,2013-05-07 07:47:00,
2013-05-07 00:52:00,32.8,31.3,30.01,WNW,301,3.0,9.0,94,0.00,,,0.01,0,WeatherCatV1.15B25,2013-05-07 07:52:00,
2013-05-07 00:57:00,32.7,31.2,30.01,West,277,5.0,8.0,94,0.00,,,0.01,0,WeatherCatV1.15B25,2013-05-07 07:57:00,
2013-05-07 01:02:00,32.5,31.0,30.00,West,273,5.0,9.0,94,0.00,,,0.01,0,WeatherCatV1.15B25,2013-05-07 08:02:00,
2013-05-07 01:07:00,32.2,30.7,30.00,WNW,298,3.0,7.0,94,0.00,,,0.01,0,WeatherCatV1.15B25,2013-05-07 08:07:00,
2013-05-07 01:12:00,32.1,30.6,30.00,WNW,288,2.0,6.0,94,0.00,,,0.01,0,WeatherCatV1.15B25,2013-05-07 08:12:00,
2013-05-07 01:17:00,32.1,30.6,30.00,WNW,297,3.0,7.0,94,0.00,,,0.01,0,WeatherCatV1.15B25,2013-05-07 08:17:00,
2013-05-07 01:22:00,31.9,30.4,30.00,WNW,288,4.0,6.0,94,0.00,,,0.01,0,WeatherCatV1.15B25,2013-05-07 08:22:00,
2013-05-07 01:27:00,31.9,30.4,30.00,NW,309,4.0,7.0,94,0.00,,,0.01,0,WeatherCatV1.15B25,2013-05-07 08:27:00,
2013-05-07 01:32:00,31.9,30.4,30.00,WNW,293,5.0,9.0,94,0.00,,,0.01,0,WeatherCatV1.15B25,2013-05-07 08:32:00,
2013-05-07 01:37:00,31.8,30.3,30.00,WNW,288,5.0,7.0,94,0.00,,,0.01,0,WeatherCatV1.15B25,2013-05-07 08:37:00,
2013-05-07 01:42:00,31.8,30.3,30.00,WNW,297,7.0,7.0,94,0.00,,,0.01,0,WeatherCatV1.15B25,2013-05-07 08:42:00,
2013-05-07 01:47:00,31.9,30.4,29.99,WNW,302,5.0,7.0,94,0.00,,,0.01,0,WeatherCatV1.15B25,2013-05-07 08:47:00,
2013-05-07 01:52:00,31.9,30.4,29.99,NW,322,4.0,5.0,94,0.00,,,0.01,0,WeatherCatV1.15B25,2013-05-07 08:52:00,
2013-05-07 01:57:00,31.9,30.4,29.99,WNW,299,4.0,7.0,94,0.00,,,0.01,0,WeatherCatV1.15B25,2013-05-07 08:57:00,
2013-05-07 02:02:00,31.9,30.4,29.99,NW,310,6.0,7.0,94,0.00,,,0.01,0,WeatherCatV1.15B25,2013-05-07 09:02:00,
2013-05-07 02:07:00,31.9,30.4,29.99,WNW,303,4.0,7.0,94,0.00,,,0.01,0,WeatherCatV1.15B25,2013-05-07 09:07:00,
2013-05-07 02:12:00,31.9,30.4,29.99,NW,310,4.0,5.0,94,0.00,,,0.01,0,WeatherCatV1.15B25,2013-05-07 09:12:00,
2013-05-07 02:17:00,31.9,30.4,29.99,WNW,303,3.0,8.0,94,0.00,,,0.01,0,WeatherCatV1.15B25,2013-05-07 09:17:00,
2013-05-07 02:22:00,31.9,30.4,29.99,NW,310,4.0,6.0,94,0.00,,,0.01,0,WeatherCatV1.15B25,2013-05-07 09:22:00,
2013-05-07 02:27:00,31.9,30.4,29.99,NW,305,6.0,9.0,94,0.00,,,0.01,0,WeatherCatV1.15B25,2013-05-07 09:27:00,
2013-05-07 02:32:00,31.9,30.4,29.99,NW,304,4.0,9.0,94,0.00,,,0.01,0,WeatherCatV1.15B25,2013-05-07 09:32:00,
2013-05-07 02:37:00,31.9,30.4,29.99,NW,304,6.0,7.0,94,0.00,,,0.01,0,WeatherCatV1.15B25,2013-05-07 09:37:00,
2013-05-07 02:42:00,31.9,30.4,29.99,NW,304,5.0,9.0,94,0.00,,,0.01,0,WeatherCatV1.15B25,2013-05-07 09:42:00,
2013-05-07 02:47:00,31.9,30.4,29.99,NW,304,4.0,10.0,94,0.00,,,0.01,0,WeatherCatV1.15B25,2013-05-07 09:47:00,
2013-05-07 02:52:00,31.9,30.4,29.99,NW,304,8.0,11.0,94,0.00,,,0.01,0,WeatherCatV1.15B25,2013-05-07 09:52:00,
2013-05-07 02:57:00,31.9,30.4,29.99,NW,304,7.0,8.0,94,0.00,,,0.01,0,WeatherCatV1.15B25,2013-05-07 09:57:00,
2013-05-07 03:02:00,31.9,30.4,29.99,NW,304,6.0,10.0,94,0.00,,,0.01,0,WeatherCatV1.15B25,2013-05-07 10:02:00,
2013-05-07 03:07:00,31.9,30.4,29.99,NW,304,5.0,13.0,94,0.00,,,0.01,0,WeatherCatV1.15B25,2013-05-07 10:07:00,
2013-05-07 03:12:00,31.9,30.4,29.99,WNW,303,10.0,14.0,94,0.00,,,0.01,0,WeatherCatV1.15B25,2013-05-07 10:12:00,
2013-05-07 03:17:00,31.9,30.4,29.98,WNW,303,11.0,13.0,94,0.00,,,0.01,0,WeatherCatV1.15B25,2013-05-07 10:17:00,
2013-05-07 03:22:00,31.9,30.4,29.98,WNW,303,7.0,10.0,94,0.00,,,0.01,0,WeatherCatV1.15B25,2013-05-07 10:22:00,
2013-05-07 03:27:00,31.9,30.4,29.98,WNW,303,11.0,11.0,94,0.00,,,0.01,0,WeatherCatV1.15B25,2013-05-07 10:27:00,
2013-05-07 03:32:00,31.9,30.4,29.99,WNW,303,8.0,10.0,94,0.00,,,0.01,0,WeatherCatV1.15B25,2013-05-07 10:32:00,
2013-05-07 03:37:00,31.9,30.4,29.99,WNW,303,9.0,11.0,94,0.00,,,0.01,0,WeatherCatV1.15B25,2013-05-07 10:37:00,
2013-05-07 03:42:00,31.8,30.3,29.99,WNW,303,9.0,10.0,94,0.00,,,0.01,0,WeatherCatV1.15B25,2013-05-07 10:42:00,
2013-05-07 03:47:00,31.8,30.3,29.98,WNW,303,10.0,11.0,94,0.00,,,0.01,0,WeatherCatV1.15B25,2013-05-07 10:47:00,
2013-05-07 03:52:00,31.8,30.3,29.98,WNW,303,6.0,11.0,94,0.00,,,0.01,0,WeatherCatV1.15B25,2013-05-07 10:52:00,
2013-05-07 03:57:00,31.9,30.4,29.98,WNW,303,9.0,10.0,94,0.00,,,0.01,0,WeatherCatV1.15B25,2013-05-07 10:57:00,
2013-05-07 04:02:00,31.9,30.4,29.98,WNW,303,8.0,10.0,94,0.00,,,0.01,0,WeatherCatV1.15B25,2013-05-07 11:02:00,
2013-05-07 04:07:00,31.9,30.4,29.98,WNW,303,9.0,11.0,94,0.00,,,0.01,0,WeatherCatV1.15B25,2013-05-07 11:07:00,
2013-05-07 04:12:00,31.9,30.4,29.98,WNW,303,4.0,11.0,94,0.00,,,0.01,0,WeatherCatV1.15B25,2013-05-07 11:12:00,
2013-05-07 04:17:00,31.9,30.4,29.96,WNW,303,8.0,10.0,94,0.00,,,0.01,0,WeatherCatV1.15B25,2013-05-07 11:17:00,
2013-05-07 04:22:00,31.9,30.4,29.96,WNW,303,10.0,10.0,94,0.00,,,0.01,0,WeatherCatV1.15B25,2013-05-07 11:22:00,
2013-05-07 04:27:00,31.9,30.4,29.96,WNW,303,8.0,12.0,94,0.00,,,0.01,0,WeatherCatV1.15B25,2013-05-07 11:27:00,
2013-05-07 04:32:00,31.9,30.4,29.96,WNW,303,7.0,10.0,94,0.00,,,0.01,0,WeatherCatV1.15B25,2013-05-07 11:32:00,
2013-05-07 04:37:00,31.9,30.4,29.96,WNW,303,6.0,10.0,94,0.00,,,0.01,0,WeatherCatV1.15B25,2013-05-07 11:37:00,
2013-05-07 04:42:00,31.9,30.4,29.96,WNW,303,6.0,9.0,94,0.00,,,0.01,0,WeatherCatV1.15B25,2013-05-07 11:42:00,
2013-05-07 04:47:00,31.8,30.3,29.96,WNW,303,5.0,9.0,94,0.00,,,0.01,0,WeatherCatV1.15B25,2013-05-07 11:47:00,
2013-05-07 04:52:00,31.8,30.5,29.96,WNW,303,7.0,9.0,95,0.00,,,0.01,0,WeatherCatV1.15B25,2013-05-07 11:52:00,
2013-05-07 04:57:00,31.8,30.5,29.96,WNW,303,6.0,10.0,95,0.00,,,0.01,0,WeatherCatV1.15B25,2013-05-07 11:57:00,
2013-05-07 05:02:00,31.8,30.5,29.96,WNW,303,9.0,11.0,95,0.00,,,0.01,0,WeatherCatV1.15B25,2013-05-07 12:02:00,
2013-05-07 05:07:00,31.8,30.5,29.96,WNW,303,7.0,11.0,95,0.00,,,0.01,0,WeatherCatV1.15B25,2013-05-07 12:07:00,
2013-05-07 05:12:00,31.8,30.5,29.96,WNW,303,10.0,12.0,95,0.00,,,0.01,0,WeatherCatV1.15B25,2013-05-07 12:12:00,
2013-05-07 05:17:00,31.8,30.5,29.96,WNW,303,9.0,12.0,95,0.00,,,0.01,0,WeatherCatV1.15B25,2013-05-07 12:17:00,
2013-05-07 05:22:00,31.8,30.5,29.96,WNW,303,7.0,10.0,95,0.00,,,0.01,0,WeatherCatV1.15B25,2013-05-07 12:22:00,
2013-05-07 05:27:00,31.8,30.5,29.96,WNW,303,12.0,12.0,95,0.00,,,0.01,0,WeatherCatV1.15B25,2013-05-07 12:27:00,
2013-05-07 05:32:00,31.8,30.5,29.96,WNW,303,6.0,9.0,95,0.00,,,0.01,0,WeatherCatV1.15B25,2013-05-07 12:32:00,
2013-05-07 05:37:00,31.6,30.3,29.96,WNW,303,10.0,10.0,95,0.00,,,0.01,0,WeatherCatV1.15B25,2013-05-07 12:37:00,
2013-05-07 05:42:00,31.6,30.3,29.96,WNW,303,5.0,10.0,95,0.00,,,0.01,0,WeatherCatV1.15B25,2013-05-07 12:42:00,
2013-05-07 05:47:00,31.6,30.3,29.96,WNW,303,8.0,9.0,95,0.00,,,0.01,0,WeatherCatV1.15B25,2013-05-07 12:47:00,
2013-05-07 05:52:00,31.5,30.2,29.96,WNW,303,5.0,10.0,95,0.00,,,0.01,0,WeatherCatV1.15B25,2013-05-07 12:52:00,
2013-05-07 05:57:00,31.5,30.2,29.96,WNW,303,6.0,8.0,95,0.00,,,0.01,0,WeatherCatV1.15B25,2013-05-07 12:57:00,
2013-05-07 06:02:00,31.5,30.2,29.97,WNW,303,6.0,9.0,95,0.00,,,0.01,0,WeatherCatV1.15B25,2013-05-07 13:02:00,
2013-05-07 06:07:00,31.3,30.0,29.97,WNW,303,6.0,9.0,95,0.00,,,0.01,0,WeatherCatV1.15B25,2013-05-07 13:07:00,
2013-05-07 06:12:00,31.3,30.0,29.97,WNW,303,5.0,6.0,95,0.00,,,0.01,0,WeatherCatV1.15B25,2013-05-07 13:12:00,
2013-05-07 06:17:00,31.3,30.0,29.99,WNW,303,5.0,6.0,95,0.00,,,0.01,5,WeatherCatV1.15B25,2013-05-07 13:17:00,
2013-05-07 06:22:00,31.2,29.9,29.99,WNW,303,5.0,6.0,95,0.00,,,0.01,7,WeatherCatV1.15B25,2013-05-07 13:22:00,
2013-05-07 06:27:00,31.2,29.9,29.99,WNW,303,4.0,9.0,95,0.00,,,0.01,9,WeatherCatV1.15B25,2013-05-07 13:27:00,
2013-05-07 06:32:00,31.2,29.9,29.99,WNW,303,4.0,7.0,95,0.00,,,0.01,11,WeatherCatV1.15B25,2013-05-07 13:32:00,
2013-05-07 06:37:00,31.0,29.7,29.99,WNW,303,5.0,7.0,95,0.00,,,0.01,11,WeatherCatV1.15B25,2013-05-07 13:37:00,
2013-05-07 06:42:00,31.0,29.7,29.99,WNW,303,7.0,7.0,95,0.00,,,0.01,14,WeatherCatV1.15B25,2013-05-07 13:42:00,
2013-05-07 06:47:00,31.0,29.7,29.99,WNW,303,6.0,10.0,95,0.00,,,0.01,18,WeatherCatV1.15B25,2013-05-07 13:47:00,
2013-05-07 06:52:00,31.0,29.7,29.99,WNW,303,6.0,8.0,95,0.00,,,0.01,19,WeatherCatV1.15B25,2013-05-07 13:52:00,
2013-05-07 06:57:00,31.0,29.7,29.99,WNW,303,7.0,9.0,95,0.00,,,0.01,23,WeatherCatV1.15B25,2013-05-07 13:57:00,
2013-05-07 07:02:00,31.0,29.7,29.99,WNW,303,5.0,7.0,95,0.00,,,0.01,30,WeatherCatV1.15B25,2013-05-07 14:02:00,
2013-05-07 07:07:00,31.0,29.7,29.99,WNW,303,6.0,10.0,95,0.00,,,0.01,32,WeatherCatV1.15B25,2013-05-07 14:07:00,
2013-05-07 07:12:00,31.0,29.7,29.99,WNW,303,4.0,7.0,95,0.00,,,0.01,35,WeatherCatV1.15B25,2013-05-07 14:12:00,
2013-05-07 07:17:00,31.0,29.7,30.01,WNW,303,5.0,7.0,95,0.00,,,0.01,42,WeatherCatV1.15B25,2013-05-07 14:17:00,
2013-05-07 07:22:00,31.0,29.7,30.01,WNW,303,6.0,10.0,95,0.00,,,0.01,47,WeatherCatV1.15B25,2013-05-07 14:22:00,
2013-05-07 07:27:00,31.0,29.7,30.01,WNW,303,9.0,10.0,95,0.00,,,0.01,39,WeatherCatV1.15B25,2013-05-07 14:27:00,
2013-05-07 07:32:00,31.0,29.7,30.01,WNW,303,6.0,10.0,95,0.00,,,0.01,35,WeatherCatV1.15B25,2013-05-07 14:32:00,
2013-05-07 07:37:00,31.0,29.7,30.01,WNW,303,7.0,10.0,95,0.00,,,0.01,42,WeatherCatV1.15B25,2013-05-07 14:37:00,
2013-05-07 07:42:00,31.0,29.7,30.01,WNW,303,8.0,11.0,95,0.00,,,0.01,46,WeatherCatV1.15B25,2013-05-07 14:42:00,
2013-05-07 07:47:00,31.0,29.7,30.01,WNW,303,9.0,11.0,95,0.00,,,0.01,47,WeatherCatV1.15B25,2013-05-07 14:47:00,
2013-05-07 07:52:00,31.0,29.7,30.01,WNW,303,8.0,10.0,95,0.00,,,0.01,51,WeatherCatV1.15B25,2013-05-07 14:52:00,
2013-05-07 07:57:00,31.0,29.7,30.01,WNW,303,7.0,11.0,95,0.00,,,0.01,63,WeatherCatV1.15B25,2013-05-07 14:57:00,
2013-05-07 08:02:00,31.2,29.9,30.02,WNW,303,9.0,9.0,95,0.00,,,0.01,77,WeatherCatV1.15B25,2013-05-07 15:02:00,
2013-05-07 08:07:00,31.2,29.9,30.02,WNW,303,6.0,12.0,95,0.00,,,0.01,79,WeatherCatV1.15B25,2013-05-07 15:07:00,
2013-05-07 08:12:00,31.2,29.9,30.02,WNW,303,7.0,10.0,95,0.00,,,0.01,72,WeatherCatV1.15B25,2013-05-07 15:12:00,
2013-05-07 08:17:00,31.2,29.9,30.02,WNW,303,7.0,11.0,95,0.00,,,0.01,63,WeatherCatV1.15B25,2013-05-07 15:17:00,
2013-05-07 08:22:00,31.2,29.9,30.02,WNW,303,5.0,10.0,95,0.00,,,0.01,72,WeatherCatV1.15B25,2013-05-07 15:22:00,
2013-05-07 08:27:00,31.3,30.0,30.02,WNW,303,6.0,10.0,95,0.00,,,0.01,83,WeatherCatV1.15B25,2013-05-07 15:27:00,
2013-05-07 08:32:00,31.3,30.0,30.03,WNW,303,7.0,10.0,95,0.00,,,0.01,98,WeatherCatV1.15B25,2013-05-07 15:32:00,
2013-05-07 08:37:00,31.3,30.0,30.03,WNW,303,5.0,6.0,95,0.00,,,0.01,123,WeatherCatV1.15B25,2013-05-07 15:37:00,
2013-05-07 08:42:00,31.3,30.0,30.03,WNW,303,5.0,7.0,95,0.00,,,0.01,134,WeatherCatV1.15B25,2013-05-07 15:42:00,
2013-05-07 08:47:00,31.3,30.0,30.03,WNW,303,5.0,7.0,95,0.00,,,0.01,134,WeatherCatV1.15B25,2013-05-07 15:47:00,
2013-05-07 08:52:00,31.3,30.0,30.03,WNW,303,6.0,9.0,95,0.00,,,0.01,139,WeatherCatV1.15B25,2013-05-07 15:52:00,
2013-05-07 08:57:00,31.3,30.0,30.03,WNW,303,6.0,9.0,95,0.00,,,0.01,134,WeatherCatV1.15B25,2013-05-07 15:57:00,
2013-05-07 09:02:00,31.5,30.2,30.03,WNW,303,5.0,9.0,95,0.00,,,0.01,142,WeatherCatV1.15B25,2013-05-07 16:02:00,
2013-05-07 09:07:00,31.5,30.2,30.03,WNW,303,6.0,9.0,95,0.00,,,0.01,137,WeatherCatV1.15B25,2013-05-07 16:07:00,
2013-05-07 09:12:00,31.5,30.2,30.03,WNW,303,7.0,10.0,95,0.00,,,0.01,146,WeatherCatV1.15B25,2013-05-07 16:12:00,
2013-05-07 09:17:00,31.5,30.2,30.04,WNW,303,6.0,10.0,95,0.00,,,0.01,137,WeatherCatV1.15B25,2013-05-07 16:17:00,
2013-05-07 09:22:00,31.5,30.2,30.04,WNW,303,6.0,10.0,95,0.00,,,0.02,127,WeatherCatV1.15B25,2013-05-07 16:22:00,
2013-05-07 09:27:00,31.6,30.3,30.04,WNW,303,5.0,7.0,95,0.00,,,0.02,120,WeatherCatV1.15B25,2013-05-07 16:27:00,
2013-05-07 09:32:00,31.6,30.3,30.05,WNW,303,8.0,8.0,95,0.00,,,0.02,141,WeatherCatV1.15B25,2013-05-07 16:32:00,
2013-05-07 09:37:00,31.6,30.3,30.05,WNW,303,4.0,7.0,95,0.00,,,0.02,146,WeatherCatV1.15B25,2013-05-07 16:37:00,
2013-05-07 09:42:00,31.8,30.5,30.05,WNW,302,5.0,8.0,95,0.00,,,0.02,151,WeatherCatV1.15B25,2013-05-07 16:42:00,
2013-05-07 09:47:00,31.8,30.5,30.05,WNW,301,5.0,6.0,95,0.00,,,0.02,158,WeatherCatV1.15B25,2013-05-07 16:47:00,
2013-05-07 09:52:00,31.9,30.6,30.05,WNW,299,4.0,7.0,95,0.00,,,0.02,167,WeatherCatV1.15B25,2013-05-07 16:52:00,
2013-05-07 09:57:00,32.1,30.8,30.05,WNW,293,5.0,5.0,95,0.00,,,0.02,190,WeatherCatV1.15B25,2013-05-07 16:57:00,
2013-05-07 10:02:00,32.1,30.6,30.05,West,275,5.0,9.0,94,0.00,,,0.02,232,WeatherCatV1.15B25,2013-05-07 17:02:00,
2013-05-07 10:07:00,32.2,30.9,30.05,WNW,297,9.0,11.0,95,0.00,,,0.02,255,WeatherCatV1.15B25,2013-05-07 17:07:00,
2013-05-07 10:12:00,32.4,31.1,30.05,West,279,3.0,7.0,95,0.00,,,0.02,258,WeatherCatV1.15B25,2013-05-07 17:12:00,
2013-05-07 10:17:00,32.5,31.2,30.05,NW,310,6.0,11.0,95,0.00,,,0.02,297,WeatherCatV1.15B25,2013-05-07 17:17:00,
2013-05-07 10:22:00,32.5,31.2,30.05,NW,306,6.0,7.0,95,0.00,,,0.03,279,WeatherCatV1.15B25,2013-05-07 17:22:00,
2013-05-07 10:27:00,32.7,31.4,30.05,West,270,5.0,7.0,95,0.00,,,0.03,281,WeatherCatV1.15B25,2013-05-07 17:27:00,
2013-05-07 10:32:00,32.7,31.4,30.03,WNW,288,6.0,9.0,95,0.00,,,0.03,294,WeatherCatV1.15B25,2013-05-07 17:32:00,
2013-05-07 10:37:00,32.8,31.5,30.03,West,261,5.0,5.0,95,0.00,,,0.03,250,WeatherCatV1.15B25,2013-05-07 17:37:00,
2013-05-07 10:42:00,32.8,31.5,30.03,WSW,258,3.0,6.0,95,0.00,,,0.04,239,WeatherCatV1.15B25,2013-05-07 17:42:00,
2013-05-07 10:47:00,32.8,31.5,30.03,WNW,299,5.0,6.0,95,0.00,,,0.04,216,WeatherCatV1.15B25,2013-05-07 17:47:00,
2013-05-07 10:52:00,32.9,31.6,30.03,WSW,247,7.0,12.0,95,0.00,,,0.04,209,WeatherCatV1.15B25,2013-05-07 17:52:00,
2013-05-07 10:57:00,32.9,31.6,30.03,NW,305,8.0,11.0,95,0.04,,,0.05,232,WeatherCatV1.15B25,2013-05-07 17:57:00,
2013-05-07 11:02:00,33.1,31.8,30.03,West,279,5.0,12.0,95,0.04,,,0.05,260,WeatherCatV1.15B25,2013-05-07 18:02:00,
2013-05-07 11:07:00,33.2,31.9,30.03,WNW,293,7.0,10.0,95,0.04,,,0.05,244,WeatherCatV1.15B25,2013-05-07 18:07:00,
2013-05-07 11:12:00,33.2,31.9,30.03,NW,309,14.0,15.0,95,0.04,,,0.06,185,WeatherCatV1.15B25,2013-05-07 18:12:00,
2013-05-07 11:17:00,33.4,32.1,30.04,WNW,283,9.0,12.0,95,0.04,,,0.06,229,WeatherCatV1.15B25,2013-05-07 18:17:00,
2013-05-07 11:22:00,33.4,32.1,30.04,West,268,11.0,16.0,95,0.04,,,0.06,308,WeatherCatV1.15B25,2013-05-07 18:22:00,
2013-05-07 11:27:00,33.4,32.1,30.04,West,276,9.0,10.0,95,0.05,,,0.07,239,WeatherCatV1.15B25,2013-05-07 18:27:00,
2013-05-07 11:32:00,33.5,32.2,30.04,West,259,7.0,12.0,95,0.05,,,0.07,271,WeatherCatV1.15B25,2013-05-07 18:32:00,
2013-05-07 11:37:00,33.7,32.4,30.04,WNW,283,7.0,12.0,95,0.04,,,0.08,313,WeatherCatV1.15B25,2013-05-07 18:37:00,
2013-05-07 11:42:00,33.8,32.5,30.04,NW,316,12.0,14.0,95,0.04,,,0.08,323,WeatherCatV1.15B25,2013-05-07 18:42:00,
2013-05-07 11:47:00,34.1,32.8,30.04,WNW,301,11.0,13.0,95,0.06,,,0.09,417,WeatherCatV1.15B25,2013-05-07 18:47:00,
2013-05-07 11:52:00,34.4,33.1,30.04,West,277,6.0,16.0,95,0.06,,,0.09,355,WeatherCatV1.15B25,2013-05-07 18:52:00,
2013-05-07 11:57:00,34.7,33.4,30.04,NW,305,10.0,13.0,95,0.05,,,0.09,533,WeatherCatV1.15B25,2013-05-07 18:57:00,
2013-05-07 12:02:00,35.0,33.7,30.02,WNW,288,15.0,15.0,95,0.05,,,0.10,543,WeatherCatV1.15B25,2013-05-07 19:02:00,
2013-05-07 12:07:00,35.0,33.7,30.02,WNW,297,11.0,15.0,95,0.09,,,0.11,475,WeatherCatV1.15B25,2013-05-07 19:07:00,
2013-05-07 12:12:00,35.2,33.9,30.02,WNW,288,13.0,17.0,95,0.08,,,0.11,573,WeatherCatV1.15B25,2013-05-07 19:12:00,
2013-05-07 12:17:00,35.2,33.9,30.02,West,279,13.0,14.0,95,0.07,,,0.12,478,WeatherCatV1.15B25,2013-05-07 19:17:00,
2013-05-07 12:22:00,35.5,34.2,30.02,WNW,293,10.0,15.0,95,0.06,,,0.12,492,WeatherCatV1.15B25,2013-05-07 19:22:00,
2013-05-07 12:27:00,35.8,34.5,30.02,West,278,14.0,16.0,95,0.06,,,0.13,591,WeatherCatV1.15B25,2013-05-07 19:27:00,
2013-05-07 12:32:00,35.8,34.5,30.02,WNW,293,14.0,14.0,95,0.07,,,0.14,476,WeatherCatV1.15B25,2013-05-07 19:32:00,
2013-05-07 12:37:00,36.2,34.9,30.02,NW,325,12.0,17.0,95,0.07,,,0.14,840,WeatherCatV1.15B25,2013-05-07 19:37:00,
2013-05-07 12:42:00,36.5,35.2,30.02,WNW,301,13.0,14.0,95,0.07,,,0.15,728,WeatherCatV1.15B25,2013-05-07 19:42:00,
2013-05-07 12:47:00,36.6,35.3,30.00,WSW,250,12.0,16.0,95,0.09,,,0.16,986,WeatherCatV1.15B25,2013-05-07 19:47:00,
2013-05-07 12:52:00,36.5,35.2,30.00,West,263,9.0,15.0,95,0.09,,,0.16,782,WeatherCatV1.15B25,2013-05-07 19:52:00,
2013-05-07 12:57:00,36.5,35.2,30.00,WNW,293,12.0,17.0,95,0.07,,,0.17,454,WeatherCatV1.15B25,2013-05-07 19:57:00,
2013-05-07 13:02:00,36.8,35.5,30.00,WSW,241,12.0,15.0,95,0.07,,,0.17,468,WeatherCatV1.15B25,2013-05-07 20:02:00,
2013-05-07 13:07:00,37.0,35.7,30.00,West,259,9.0,15.0,95,0.07,,,0.18,476,WeatherCatV1.15B25,2013-05-07 20:07:00,
2013-05-07 13:12:00,36.9,35.6,30.00,West,266,5.0,14.0,95,0.07,,,0.18,376,WeatherCatV1.15B25,2013-05-07 20:12:00,
2013-05-07 13:17:00,36.9,35.6,30.01,WNW,288,16.0,18.0,95,0.05,,,0.18,638,WeatherCatV1.15B25,2013-05-07 20:17:00,
2013-05-07 13:22:00,36.9,35.6,30.01,WSW,258,14.0,21.0,95,0.05,,,0.19,548,WeatherCatV1.15B25,2013-05-07 20:22:00,
2013-05-07 13:27:00,36.6,35.3,30.01,West,262,12.0,17.0,95,0.05,,,0.19,367,WeatherCatV1.15B25,2013-05-07 20:27:00,
2013-05-07 13:32:00,36.5,35.2,30.02,SW,228,6.0,14.0,95,0.05,,,0.20,424,WeatherCatV1.15B25,2013-05-07 20:32:00,
2013-05-07 13:37:00,36.8,35.5,30.02,West,260,9.0,14.0,95,0.05,,,0.20,381,WeatherCatV1.15B25,2013-05-07 20:37:00,
2013-05-07 13:42:00,36.8,35.5,30.02,NW,311,13.0,14.0,95,0.05,,,0.20,520,WeatherCatV1.15B25,2013-05-07 20:42:00,
2013-05-07 13:47:00,36.9,35.6,30.02,WSW,245,10.0,15.0,95,0.00,,,0.20,446,WeatherCatV1.15B25,2013-05-07 20:47:00,
2013-05-07 13:52:00,37.0,35.7,30.02,NW,307,9.0,13.0,95,0.00,,,0.21,436,WeatherCatV1.15B25,2013-05-07 20:52:00,
2013-05-07 13:57:00,37.0,35.7,30.02,West,278,17.0,19.0,95,0.00,,,0.21,425,WeatherCatV1.15B25,2013-05-07 20:57:00,
2013-05-07 14:02:00,36.9,35.6,30.02,WNW,283,13.0,14.0,95,0.00,,,0.21,497,WeatherCatV1.15B25,2013-05-07 21:02:00,
2013-05-07 14:07:00,36.9,35.6,30.02,WNW,293,9.0,15.0,95,0.00,,,0.21,388,WeatherCatV1.15B25,2013-05-07 21:07:00,
2013-05-07 14:12:00,37.0,35.7,30.02,NW,318,13.0,15.0,95,0.00,,,0.21,424,WeatherCatV1.15B25,2013-05-07 21:12:00,
2013-05-07 14:17:00,37.2,35.9,30.02,West,275,9.0,15.0,95,0.00,,,0.22,381,WeatherCatV1.15B25,2013-05-07 21:17:00,
2013-05-07 14:22:00,37.2,35.9,30.02,West,259,6.0,13.0,95,0.00,,,0.22,376,WeatherCatV1.15B25,2013-05-07 21:22:00,
2013-05-07 14:27:00,36.9,35.6,30.02,NW,304,12.0,16.0,95,0.00,,,0.22,359,WeatherCatV1.15B25,2013-05-07 21:27:00,
2013-05-07 14:32:00,36.9,35.6,30.02,NW,307,9.0,18.0,95,0.00,,,0.22,496,WeatherCatV1.15B25,2013-05-07 21:32:00,
2013-05-07 14:37:00,37.0,35.7,30.02,West,266,4.0,14.0,95,0.00,,,0.22,367,WeatherCatV1.15B25,2013-05-07 21:37:00,
2013-05-07 14:42:00,37.2,35.9,30.02,WNW,297,14.0,14.0,95,0.00,,,0.22,325,WeatherCatV1.15B25,2013-05-07 21:42:00,
2013-05-07 14:47:00,37.0,35.7,30.02,WNW,288,16.0,19.0,95,0.00,,,0.22,315,WeatherCatV1.15B25,2013-05-07 21:47:00,
2013-05-07 14:52:00,36.9,35.3,30.02,WNW,293,15.0,17.0,94,0.00,,,0.22,369,WeatherCatV1.15B25,2013-05-07 21:52:00,
2013-05-07 14:57:00,36.9,35.3,30.02,WNW,293,13.0,20.0,94,0.00,,,0.22,257,WeatherCatV1.15B25,2013-05-07 21:57:00,
2013-05-07 15:02:00,37.0,35.4,30.02,WNW,288,17.0,20.0,94,0.00,,,0.22,237,WeatherCatV1.15B25,2013-05-07 22:02:00,
2013-05-07 15:07:00,36.9,35.1,30.02,NW,305,12.0,20.0,93,0.00,,,0.22,264,WeatherCatV1.15B25,2013-05-07 22:07:00,
2013-05-07 15:12:00,37.0,35.2,30.02,West,262,10.0,12.0,93,0.00,,,0.22,167,WeatherCatV1.15B25,2013-05-07 22:12:00,
2013-05-07 15:17:00,37.0,34.9,30.03,WNW,283,10.0,17.0,92,0.00,,,0.22,151,WeatherCatV1.15B25,2013-05-07 22:17:00,
2013-05-07 15:22:00,37.0,34.9,30.03,WNW,288,9.0,16.0,92,0.00,,,0.22,137,WeatherCatV1.15B25,2013-05-07 22:22:00,
2013-05-07 15:27:00,36.9,34.5,30.03,WNW,288,15.0,17.0,91,0.00,,,0.22,111,WeatherCatV1.15B25,2013-05-07 22:27:00,
2013-05-07 15:32:00,36.9,34.5,30.03,WNW,297,7.0,15.0,91,0.00,,,0.22,72,WeatherCatV1.15B25,2013-05-07 22:32:00,
2013-05-07 15:37:00,36.9,34.5,30.03,WNW,288,6.0,20.0,91,0.00,,,0.22,113,WeatherCatV1.15B25,2013-05-07 22:37:00,
2013-05-07 15:42:00,36.6,34.2,30.03,WNW,283,6.0,19.0,91,0.00,,,0.22,97,WeatherCatV1.15B25,2013-05-07 22:42:00,
2013-05-07 15:47:00,36.6,34.5,30.02,WSW,255,13.0,20.0,92,0.00,,,0.22,62,WeatherCatV1.15B25,2013-05-07 22:47:00,
2013-05-07 15:52:00,36.6,34.5,30.02,NW,314,15.0,20.0,92,0.00,,,0.23,139,WeatherCatV1.15B25,2013-05-07 22:52:00,
2013-05-07 15:57:00,36.6,34.5,30.02,WNW,302,13.0,15.0,92,0.00,,,0.23,65,WeatherCatV1.15B25,2013-05-07 22:57:00,
2013-05-07 16:02:00,36.6,34.5,30.01,WNW,293,12.0,20.0,92,0.00,,,0.23,56,WeatherCatV1.15B25,2013-05-07 23:02:00,
2013-05-07 16:07:00,36.5,34.4,30.01,NW,306,16.0,17.0,92,0.00,,,0.23,39,WeatherCatV1.15B25,2013-05-07 23:07:00,
2013-05-07 16:12:00,36.5,34.7,30.01,WNW,283,18.0,20.0,93,0.00,,,0.24,63,WeatherCatV1.15B25,2013-05-07 23:12:00,
2013-05-07 16:17:00,36.5,34.7,30.01,WNW,293,10.0,16.0,93,0.00,,,0.24,125,WeatherCatV1.15B25,2013-05-07 23:17:00,
2013-05-07 16:22:00,36.6,34.8,30.01,WNW,301,11.0,17.0,93,0.00,,,0.24,70,WeatherCatV1.15B25,2013-05-07 23:22:00,
2013-05-07 16:27:00,36.8,35.0,30.01,NW,308,12.0,16.0,93,0.00,,,0.24,54,WeatherCatV1.15B25,2013-05-07 23:27:00,
2013-05-07 16:32:00,36.8,35.0,30.01,West,273,12.0,15.0,93,0.00,,,0.24,47,WeatherCatV1.15B25,2013-05-07 23:32:00,
2013-05-07 16:37:00,36.8,35.0,30.01,NW,309,14.0,16.0,93,0.00,,,0.24,44,WeatherCatV1.15B25,2013-05-07 23:37:00,
2013-05-07 16:42:00,36.8,35.0,30.01,WNW,293,7.0,13.0,93,0.00,,,0.24,47,WeatherCatV1.15B25,2013-05-07 23:42:00,
2013-05-07 16:47:00,36.8,35.0,30.01,West,261,7.0,13.0,93,0.00,,,0.24,49,WeatherCatV1.15B25,2013-05-07 23:47:00,
2013-05-07 16:52:00,36.8,35.2,30.01,WNW,288,6.0,11.0,94,0.00,,,0.24,44,WeatherCatV1.15B25,2013-05-07 23:52:00,
2013-05-07 16:57:00,36.6,35.0,30.01,WNW,293,9.0,13.0,94,0.00,,,0.25,93,WeatherCatV1.15B25,2013-05-07 23:57:00,
2013-05-07 17:02:00,36.6,35.0,30.01,NW,322,3.0,14.0,94,0.00,,,0.25,74,WeatherCatV1.15B25,2013-05-08 00:02:00,
2013-05-07 17:07:00,36.6,35.0,30.01,WNW,293,13.0,18.0,94,0.00,,,0.25,70,WeatherCatV1.15B25,2013-05-08 00:07:00,
2013-05-07 17:12:00,36.6,35.0,30.01,NW,311,14.0,19.0,94,0.00,,,0.26,67,WeatherCatV1.15B25,2013-05-08 00:12:00,
2013-05-07 17:17:00,36.6,35.0,30.02,NW,318,9.0,19.0,94,0.00,,,0.26,58,WeatherCatV1.15B25,2013-05-08 00:17:00,
2013-05-07 17:22:00,36.5,34.9,30.02,WNW,297,13.0,20.0,94,0.06,,,0.27,53,WeatherCatV1.15B25,2013-05-08 00:22:00,
2013-05-07 17:27:00,36.2,34.6,30.02,WNW,293,13.0,17.0,94,0.06,,,0.27,58,WeatherCatV1.15B25,2013-05-08 00:27:00,
2013-05-07 17:32:00,35.9,34.3,30.02,WNW,288,5.0,14.0,94,0.06,,,0.28,83,WeatherCatV1.15B25,2013-05-08 00:32:00,
2013-05-07 17:37:00,36.0,34.4,30.02,NW,312,15.0,17.0,94,0.06,,,0.28,100,WeatherCatV1.15B25,2013-05-08 00:37:00,
2013-05-07 17:42:00,36.3,34.7,30.02,NW,306,16.0,16.0,94,0.05,,,0.28,76,WeatherCatV1.15B25,2013-05-08 00:42:00,
2013-05-07 17:47:00,36.5,34.9,30.02,WNW,288,11.0,18.0,94,0.00,,,0.28,104,WeatherCatV1.15B25,2013-05-08 00:47:00,
2013-05-07 17:52:00,36.3,34.7,30.02,WNW,297,12.0,18.0,94,0.00,,,0.29,39,WeatherCatV1.15B25,2013-05-08 00:52:00,
2013-05-07 17:57:00,36.3,34.7,30.02,NW,306,12.0,16.0,94,0.00,,,0.29,14,WeatherCatV1.15B25,2013-05-08 00:57:00,
2013-05-07 18:02:00,36.3,34.7,30.03,WNW,301,11.0,16.0,94,0.00,,,0.29,23,WeatherCatV1.15B25,2013-05-08 01:02:00,
2013-05-07 18:07:00,36.3,34.7,30.03,WNW,293,9.0,10.0,94,0.00,,,0.29,19,WeatherCatV1.15B25,2013-05-08 01:07:00,
2013-05-07 18:12:00,36.5,34.9,30.03,WNW,283,10.0,17.0,94,0.00,,,0.30,32,WeatherCatV1.15B25,2013-05-08 01:12:00,
2013-05-07 18:17:00,36.5,34.9,30.02,WNW,297,6.0,13.0,94,0.00,,,0.30,86,WeatherCatV1.15B25,2013-05-08 01:17:00,
2013-05-07 18:22:00,36.5,34.9,30.02,WSW,253,8.0,14.0,94,0.00,,,0.30,123,WeatherCatV1.15B25,2013-05-08 01:22:00,
2013-05-07 18:27:00,36.3,34.7,30.02,WNW,293,10.0,13.0,94,0.00,,,0.30,74,WeatherCatV1.15B25,2013-05-08 01:27:00,
2013-05-07 18:32:00,36.2,34.6,30.03,West,265,12.0,17.0,94,0.00,,,0.30,42,WeatherCatV1.15B25,2013-05-08 01:32:00,
2013-05-07 18:37:00,36.0,34.4,30.03,West,274,6.0,14.0,94,0.00,,,0.30,19,WeatherCatV1.15B25,2013-05-08 01:37:00,
2013-05-07 18:42:00,36.0,34.4,30.03,WNW,283,5.0,12.0,94,0.00,,,0.30,16,WeatherCatV1.15B25,2013-05-08 01:42:00,
2013-05-07 18:47:00,35.9,34.3,30.04,SW,236,10.0,10.0,94,0.00,,,0.30,16,WeatherCatV1.15B25,2013-05-08 01:47:00,
2013-05-07 18:52:00,35.9,34.3,30.04,WNW,288,6.0,9.0,94,0.00,,,0.30,7,WeatherCatV1.15B25,2013-05-08 01:52:00,
2013-05-07 18:57:00,35.8,34.2,30.04,West,266,9.0,13.0,94,0.00,,,0.30,7,WeatherCatV1.15B25,2013-05-08 01:57:00,
2013-05-07 19:02:00,35.9,34.3,30.04,West,270,7.0,13.0,94,0.00,,,0.30,5,WeatherCatV1.15B25,2013-05-08 02:02:00,
2013-05-07 19:07:00,35.9,34.3,30.04,WSW,258,12.0,12.0,94,0.00,,,0.30,5,WeatherCatV1.15B25,2013-05-08 02:07:00,
2013-05-07 19:12:00,35.9,34.3,30.04,WNW,283,5.0,12.0,94,0.00,,,0.30,7,WeatherCatV1.15B25,2013-05-08 02:12:00,
2013-05-07 19:17:00,35.9,34.3,30.04,WNW,300,6.0,9.0,94,0.00,,,0.30,5,WeatherCatV1.15B25,2013-05-08 02:17:00,
2013-05-07 19:22:00,35.9,34.3,30.04,WNW,299,7.0,17.0,94,0.00,,,0.30,5,WeatherCatV1.15B25,2013-05-08 02:22:00,
2013-05-07 19:27:00,35.9,34.3,30.04,NW,312,17.0,17.0,94,0.00,,,0.30,0,WeatherCatV1.15B25,2013-05-08 02:27:00,
2013-05-07 19:32:00,35.9,34.3,30.04,NW,307,6.0,12.0,94,0.00,,,0.30,0,WeatherCatV1.15B25,2013-05-08 02:32:00,
2013-05-07 19:37:00,36.0,34.4,30.04,WNW,288,9.0,13.0,94,0.00,,,0.30,0,WeatherCatV1.15B25,2013-05-08 02:37:00,
2013-05-07 19:42:00,36.0,34.4,30.04,West,278,3.0,7.0,94,0.00,,,0.30,0,WeatherCatV1.15B25,2013-05-08 02:42:00,
2013-05-07 19:47:00,36.0,34.4,30.05,WNW,283,15.0,16.0,94,0.00,,,0.30,0,WeatherCatV1.15B25,2013-05-08 02:47:00,
2013-05-07 19:52:00,35.9,34.3,30.05,WNW,297,12.0,17.0,94,0.00,,,0.31,0,WeatherCatV1.15B25,2013-05-08 02:52:00,
2013-05-07 19:57:00,35.9,34.3,30.05,WNW,298,10.0,14.0,94,0.00,,,0.31,0,WeatherCatV1.15B25,2013-05-08 02:57:00,
2013-05-07 20:02:00,35.9,34.3,30.04,WNW,288,11.0,13.0,94,0.00,,,0.31,0,WeatherCatV1.15B25,2013-05-08 03:02:00,
2013-05-07 20:07:00,35.9,34.3,30.04,West,274,6.0,18.0,94,0.00,,,0.31,0,WeatherCatV1.15B25,2013-05-08 03:07:00,
2013-05-07 20:12:00,35.9,34.3,30.04,NW,304,9.0,15.0,94,0.00,,,0.32,0,WeatherCatV1.15B25,2013-05-08 03:12:00,
2013-05-07 20:17:00,35.8,34.2,30.05,NW,305,10.0,14.0,94,0.07,,,0.33,0,WeatherCatV1.15B25,2013-05-08 03:17:00,
2013-05-07 20:22:00,35.8,34.2,30.05,West,267,7.0,10.0,94,0.07,,,0.33,0,WeatherCatV1.15B25,2013-05-08 03:22:00,
2013-05-07 20:27:00,35.6,34.0,30.05,West,278,7.0,13.0,94,0.06,,,0.33,0,WeatherCatV1.15B25,2013-05-08 03:27:00,
2013-05-07 20:32:00,35.6,34.0,30.05,WSW,252,11.0,15.0,94,0.05,,,0.34,0,WeatherCatV1.15B25,2013-05-08 03:32:00,
2013-05-07 20:37:00,35.5,33.9,30.05,WNW,298,15.0,17.0,94,0.05,,,0.34,0,WeatherCatV1.15B25,2013-05-08 03:37:00,
2013-05-07 20:42:00,35.5,33.9,30.05,WNW,288,7.0,18.0,94,0.06,,,0.35,0,WeatherCatV1.15B25,2013-05-08 03:42:00,
2013-05-07 20:47:00,35.5,33.9,30.05,West,271,11.0,15.0,94,0.06,,,0.35,0,WeatherCatV1.15B25,2013-05-08 03:47:00,
2013-05-07 20:52:00,35.6,34.0,30.05,West,276,5.0,13.0,94,0.04,,,0.36,0,WeatherCatV1.15B25,2013-05-08 03:52:00,
2013-05-07 20:57:00,35.5,33.9,30.05,West,279,15.0,15.0,94,0.04,,,0.36,0,WeatherCatV1.15B25,2013-05-08 03:57:00,
2013-05-07 21:01:00,35.3,33.7,30.05,NW,316,9.0,16.0,94,0.04,,,0.36,0,WeatherCatV1.15B25,2013-05-08 04:01:00,
2013-05-07 21:02:00,35.3,33.7,30.05,West,263,10.0,16.0,94,0.04,,,0.36,0,WeatherCatV1.15B25,2013-05-08 04:02:00,
2013-05-07 21:03:00,35.3,33.7,30.05,West,259,9.0,10.0,94,0.04,,,0.36,0,WeatherCatV1.15B25,2013-05-08 04:03:00,
2013-05-07 21:04:00,35.3,33.7,30.05,WNW,301,12.0,15.0,94,0.04,,,0.36,0,WeatherCatV1.15B25,2013-05-08 04:04:00,
2013-05-07 21:06:00,35.3,33.7,30.05,West,266,7.0,12.0,94,0.05,,,0.37,0,WeatherCatV1.15B25,2013-05-08 04:06:00,
2013-05-07 21:11:00,35.3,33.7,30.05,WNW,293,7.0,11.0,94,0.05,,,0.37,0,WeatherCatV1.15B25,2013-05-08 04:11:00,
2013-05-07 21:16:00,35.2,33.6,30.07,WSW,248,13.0,13.0,94,0.05,,,0.37,0,WeatherCatV1.15B25,2013-05-08 04:16:00,
2013-05-07 21:21:00,35.2,33.6,30.07,WNW,293,8.0,8.0,94,0.04,,,0.38,0,WeatherCatV1.15B25,2013-05-08 04:21:00,
2013-05-07 21:26:00,35.2,33.6,30.07,WNW,293,4.0,12.0,94,0.04,,,0.38,0,WeatherCatV1.15B25,2013-05-08 04:26:00,
2013-05-07 21:31:00,35.3,33.7,30.07,NW,313,9.0,11.0,94,0.04,,,0.38,0,WeatherCatV1.15B25,2013-05-08 04:31:00,
2013-05-07 21:36:00,35.3,33.7,30.07,WNW,288,10.0,15.0,94,0.04,,,0.39,0,WeatherCatV1.15B25,2013-05-08 04:36:00,
2013-05-07 21:41:00,35.3,33.7,30.07,West,271,9.0,15.0,94,0.04,,,0.39,0,WeatherCatV1.15B25,2013-05-08 04:41:00,
2013-05-07 21:46:00,35.5,33.9,30.05,WNW,297,7.0,12.0,94,0.04,,,0.39,0,WeatherCatV1.15B25,2013-05-08 04:46:00,
2013-05-07 21:51:00,35.5,33.9,30.05,WNW,288,6.0,15.0,94,0.04,,,0.39,0,WeatherCatV1.15B25,2013-05-08 04:51:00,
2013-05-07 21:56:00,35.5,33.9,30.05,NW,316,15.0,15.0,94,0.00,,,0.39,0,WeatherCatV1.15B25,2013-05-08 04:56:00,
2013-05-07 22:01:00,35.5,33.9,30.06,WNW,299,14.0,18.0,94,0.00,,,0.40,0,WeatherCatV1.15B25,2013-05-08 05:01:00,
2013-05-07 22:06:00,35.5,33.9,30.06,WNW,303,11.0,17.0,94,0.00,,,0.40,0,WeatherCatV1.15B25,2013-05-08 05:06:00,
2013-05-07 22:11:00,35.3,33.7,30.06,West,278,8.0,18.0,94,0.00,,,0.40,0,WeatherCatV1.15B25,2013-05-08 05:11:00,
2013-05-07 22:16:00,35.3,33.7,30.06,WNW,293,6.0,12.0,94,0.00,,,0.40,0,WeatherCatV1.15B25,2013-05-08 05:16:00,
2013-05-07 22:21:00,35.3,33.7,30.06,WNW,283,13.0,13.0,94,0.00,,,0.40,0,WeatherCatV1.15B25,2013-05-08 05:21:00,
2013-05-07 22:26:00,35.3,33.7,30.06,WNW,288,11.0,15.0,94,0.00,,,0.40,0,WeatherCatV1.15B25,2013-05-08 05:26:00,
2013-05-07 22:31:00,35.3,33.7,30.06,WNW,299,12.0,13.0,94,0.00,,,0.40,0,WeatherCatV1.15B25,2013-05-08 05:31:00,
2013-05-07 22:36:00,35.3,33.7,30.06,WNW,293,11.0,16.0,94,0.00,,,0.40,0,WeatherCatV1.15B25,2013-05-08 05:36:00,
2013-05-07 22:41:00,35.3,33.7,30.06,WSW,258,10.0,13.0,94,0.00,,,0.40,0,WeatherCatV1.15B25,2013-05-08 05:41:00,
2013-05-07 22:46:00,35.3,33.7,30.07,NW,305,8.0,12.0,94,0.00,,,0.41,0,WeatherCatV1.15B25,2013-05-08 05:46:00,
2013-05-07 22:51:00,35.2,33.6,30.07,WNW,283,9.0,11.0,94,0.00,,,0.41,0,WeatherCatV1.15B25,2013-05-08 05:51:00,
2013-05-07 22:56:00,35.2,33.6,30.07,WNW,293,5.0,11.0,94,0.00,,,0.41,0,WeatherCatV1.15B25,2013-05-08 05:56:00,
2013-05-07 23:01:00,35.2,33.6,30.07,WNW,283,5.0,10.0,94,0.04,,,0.42,0,WeatherCatV1.15B25,2013-05-08 06:01:00,
2013-05-07 23:06:00,35.2,33.6,30.07,WNW,288,10.0,11.0,94,0.04,,,0.42,0,WeatherCatV1.15B25,2013-05-08 06:06:00,
2013-05-07 23:11:00,35.0,33.5,30.07,WNW,288,6.0,13.0,94,0.04,,,0.42,0,WeatherCatV1.15B25,2013-05-08 06:11:00,
2013-05-07 23:16:00,35.0,33.5,30.05,NW,317,9.0,13.0,94,0.04,,,0.43,0,WeatherCatV1.15B25,2013-05-08 06:16:00,
2013-05-07 23:21:00,34.9,33.4,30.05,WNW,298,9.0,9.0,94,0.04,,,0.43,0,WeatherCatV1.15B25,2013-05-08 06:21:00,
2013-05-07 23:26:00,34.9,33.4,30.05,WNW,293,5.0,10.0,94,0.04,,,0.43,0,WeatherCatV1.15B25,2013-05-08 06:26:00,
2013-05-07 23:31:00,34.7,33.2,30.05,NW,310,7.0,11.0,94,0.00,,,0.43,0,WeatherCatV1.15B25,2013-05-08 06:31:00,
2013-05-07 23:36:00,34.6,33.1,30.05,West,263,5.0,10.0,94,0.00,,,0.43,0,WeatherCatV1.15B25,2013-05-08 06:36:00,
2013-05-07 23:41:00,34.6,33.1,30.05,West,271,7.0,11.0,94,0.00,,,0.43,0,WeatherCatV1.15B25,2013-05-08 06:41:00,
2013-05-07 23:46:00,34.4,32.9,30.07,WNW,288,8.0,12.0,94,0.00,,,0.43,0,WeatherCatV1.15B25,2013-05-08 06:46:00,
2013-05-07 23:51:00,34.4,32.9,30.07,WNW,297,7.0,13.0,94,0.00,,,0.43,0,WeatherCatV1.15B25,2013-05-08 06:51:00,
2013-05-07 23:56:00,34.4,32.9,30.07,WSW,248,7.0,11.0,94,0.00,,,0.43,0,WeatherCatV1.15B25,2013-05-08 06:56:00,